Change the Weather History Date:

Saturday, October 12, 2013

  Actual Average (KBUO) Record (KBUO)
Temperature  
Mean Temperature 42 °F -  
Max Temperature 57 °F 79 °F 93 °F (1999)
Min Temperature 26 °F 51 °F 37 °F (1997)
Degree Days  
Heating Degree Days 24    
Moisture  
Dew Point 28 °F    
Average Humidity 64    
Maximum Humidity 93    
Minimum Humidity 30    
Precipitation  
Precipitation 0.00 in - - ()
Sea Level Pressure  
Sea Level Pressure 30.10 in    
Wind  
Wind Speed 2 mph (West)    
Max Wind Speed 13 mph    
Max Gust Speed -    
Visibility 10 miles    
Events      
Averages and records for this station are not official NWS values.
T = Trace of Precipitation, MM = Missing Value Source: NWS Daily Summary

Daily Weather History Graph

Daily Weather History Graph

Search for Another Location

Airport or City:

Trip Planner

Search our weather history database for the weather conditions in past years. The results will help you decide how hot, cold, wet, or windy it might be!

Date:

Astronomy

Oct. 12, 2013 Rise Set
Actual Time 6:50 AM PDT 6:16 PM PDT
Civil Twilight 6:25 AM PDT 6:41 PM PDT
Nautical Twilight 5:56 AM PDT 7:10 PM PDT
Astronomical Twilight 5:27 AM PDT 7:39 PM PDT
Moon 2:14 PM PDT (10/12) 12:15 AM PDT (10/12)
Length of Visible Light 12h 16m
Length of Day
11h 25m
First Quarter, 60% of the Moon is Illuminated
Oct 12
First Quarter
Oct 18
Full
Oct 26
Last Quarter
Nov 3
New
Nov 9
First Quarter

Hourly Weather History & Observations

Time (PDT) Temp. Windchill Dew Point Humidity Pressure Visibility Wind Dir Wind Speed Gust Speed Precip Events Conditions
12:15 AM 28.4 °F - 26.6 °F 93% 30.14 in 10.0 mi Calm Calm - N/A   Clear
12:35 AM 28.4 °F - 24.8 °F 86% 30.14 in 10.0 mi Calm Calm - N/A   Clear
12:55 AM 28.4 °F - 24.8 °F 86% 30.14 in 10.0 mi Calm Calm - N/A   Clear
1:15 AM 28.4 °F - 24.8 °F 86% 30.15 in 10.0 mi Calm Calm - N/A   Clear
1:35 AM 28.4 °F - 24.8 °F 86% 30.15 in 10.0 mi Calm Calm - N/A   Clear
1:55 AM 28.4 °F - 23.0 °F 80% 30.14 in 10.0 mi Calm Calm - N/A   Clear
2:15 AM 28.4 °F - 23.0 °F 80% 30.13 in 10.0 mi Calm Calm - N/A   Clear
2:35 AM 28.4 °F - 23.0 °F 80% 30.13 in 10.0 mi Calm Calm - N/A   Clear
2:55 AM 26.6 °F - 23.0 °F 86% 30.12 in 10.0 mi Calm Calm - N/A   Clear
3:15 AM 26.6 °F - 23.0 °F 86% 30.12 in 10.0 mi Calm Calm - N/A   Clear
3:35 AM 26.6 °F - 23.0 °F 86% 30.12 in 10.0 mi Calm Calm - N/A   Clear
3:55 AM 26.6 °F - 23.0 °F 86% 30.11 in 10.0 mi Calm Calm - N/A   Clear
4:15 AM 26.6 °F - 23.0 °F 86% 30.11 in 10.0 mi Calm Calm - N/A   Clear
4:35 AM 26.6 °F - 23.0 °F 86% 30.12 in 10.0 mi Calm Calm - N/A   Clear
4:55 AM 26.6 °F - 23.0 °F 86% 30.12 in 10.0 mi Calm Calm - N/A   Clear
5:15 AM 26.6 °F - 23.0 °F 86% 30.12 in 10.0 mi Calm Calm - N/A   Clear
5:35 AM 26.6 °F - 23.0 °F 86% 30.11 in 10.0 mi Calm Calm - N/A   Clear
5:55 AM 26.6 °F - 23.0 °F 86% 30.12 in 10.0 mi Calm Calm - N/A   Clear
6:15 AM 26.6 °F - 23.0 °F 86% 30.12 in 10.0 mi Calm Calm - N/A   Clear
6:35 AM 26.6 °F - 23.0 °F 86% 30.12 in 10.0 mi Calm Calm - N/A   Clear
6:55 AM 26.6 °F - 23.0 °F 86% 30.12 in 10.0 mi Calm Calm - N/A   Clear
7:15 AM 26.6 °F - 23.0 °F 86% 30.12 in 10.0 mi Calm Calm - N/A   Clear
7:35 AM 26.6 °F - 23.0 °F 86% 30.13 in 10.0 mi Calm Calm - N/A   Clear
7:55 AM 30.2 °F - 26.6 °F 86% 30.13 in 10.0 mi Calm Calm - N/A   Clear
8:15 AM 32.0 °F - 30.2 °F 93% 30.13 in 10.0 mi Calm Calm - N/A   Clear
8:35 AM 35.6 °F - 32.0 °F 87% 30.14 in 10.0 mi Calm Calm - N/A   Clear
8:55 AM 39.2 °F - 28.4 °F 65% 30.14 in 10.0 mi Calm Calm - N/A   Clear
9:15 AM 42.8 °F - 28.4 °F 57% 30.13 in 10.0 mi Calm Calm - N/A   Clear
9:35 AM 44.6 °F - 28.4 °F 53% 30.14 in 10.0 mi Calm Calm - N/A   Clear
9:55 AM 48.2 °F - 21.2 °F 34% 30.13 in 10.0 mi Calm Calm - N/A   Clear
10:15 AM 50.0 °F - 23.0 °F 35% 30.13 in 10.0 mi WSW 4.6 mph - N/A   Clear
10:35 AM 51.8 °F - 23.0 °F 33% 30.12 in 10.0 mi West 4.6 mph - N/A   Clear
10:55 AM 51.8 °F - 24.8 °F 35% 30.12 in 10.0 mi West 3.5 mph - N/A   Clear
11:15 AM 53.6 °F - 23.0 °F 30% 30.12 in 10.0 mi West 4.6 mph - N/A   Clear
11:35 AM 53.6 °F - 23.0 °F 30% 30.12 in 10.0 mi West 6.9 mph - N/A   Clear
11:55 AM 55.4 °F - 24.8 °F 31% 30.11 in 10.0 mi West 5.8 mph - N/A   Clear
12:15 PM 55.4 °F - 26.6 °F 33% 30.11 in 10.0 mi West 4.6 mph - N/A   Clear
12:35 PM 55.4 °F - 28.4 °F 36% 30.10 in 10.0 mi ENE 10.4 mph - N/A   Clear
12:55 PM 55.4 °F - 28.4 °F 36% 30.09 in 10.0 mi ENE 6.9 mph - N/A   Clear
1:15 PM 55.4 °F - 28.4 °F 36% 30.08 in 10.0 mi NE 6.9 mph - N/A   Clear
1:35 PM 55.4 °F - 28.4 °F 36% 30.08 in 10.0 mi East 3.5 mph - N/A   Clear
1:55 PM 57.2 °F - 30.2 °F 36% 30.08 in 10.0 mi ENE 12.7 mph - N/A   Clear
2:15 PM 55.4 °F - 28.4 °F 36% 30.08 in 10.0 mi East 9.2 mph - N/A   Clear
2:35 PM 55.4 °F - 28.4 °F 36% 30.08 in 10.0 mi ENE 9.2 mph - N/A   Clear
2:55 PM 57.2 °F - 30.2 °F 36% 30.08 in 10.0 mi WNW 5.8 mph - N/A   Clear
3:15 PM 57.2 °F - 30.2 °F 36% 30.08 in 10.0 mi NNW 8.1 mph - N/A   Clear
3:35 PM 55.4 °F - 28.4 °F 36% 30.08 in 10.0 mi East 6.9 mph - N/A   Clear
3:55 PM 55.4 °F - 28.4 °F 36% 30.07 in 10.0 mi NNE 4.6 mph - N/A   Clear
4:15 PM 55.4 °F - 28.4 °F 36% 30.07 in 10.0 mi NE 3.5 mph - N/A   Clear
4:35 PM 55.4 °F - 28.4 °F 36% 30.07 in 10.0 mi NNW 3.5 mph - N/A   Clear
4:55 PM 53.6 °F - 33.8 °F 47% 30.07 in 10.0 mi West 11.5 mph - N/A   Clear
5:15 PM 53.6 °F - 33.8 °F 47% 30.07 in 10.0 mi West 8.1 mph - N/A   Clear
5:35 PM 51.8 °F - 33.8 °F 50% 30.07 in 10.0 mi West 9.2 mph - N/A   Clear
5:55 PM 50.0 °F - 32.0 °F 50% 30.06 in 10.0 mi WSW 3.5 mph - N/A   Clear
6:15 PM 46.4 °F 45.2 °F 32.0 °F 57% 30.06 in 10.0 mi WSW 3.5 mph - N/A   Clear
6:35 PM 46.4 °F 44.3 °F 33.8 °F 62% 30.07 in 10.0 mi SW 4.6 mph - N/A   Clear
6:55 PM 44.6 °F 41.4 °F 33.8 °F 66% 30.07 in 10.0 mi WSW 5.8 mph - N/A   Clear
7:15 PM 44.6 °F 43.1 °F 33.8 °F 66% 30.07 in 10.0 mi WSW 3.5 mph - N/A   Clear
7:35 PM 42.8 °F 40.1 °F 33.8 °F 70% 30.08 in 10.0 mi WSW 4.6 mph - N/A   Clear
7:55 PM 42.8 °F 40.1 °F 33.8 °F 70% 30.08 in 10.0 mi WSW 4.6 mph - N/A   Clear
8:15 PM 42.8 °F 41.1 °F 33.8 °F 70% 30.08 in 10.0 mi WSW 3.5 mph - N/A   Clear
8:35 PM 41.0 °F 38.0 °F 33.8 °F 76% 30.08 in 10.0 mi West 4.6 mph - N/A   Clear
8:55 PM 39.2 °F - 33.8 °F 81% 30.08 in 7.0 mi Calm Calm - N/A   Clear
9:15 PM 37.4 °F - 32.0 °F 81% 30.08 in 7.0 mi Calm Calm - N/A   Clear
9:35 PM 35.6 °F - 32.0 °F 87% 30.08 in 7.0 mi Calm Calm - N/A   Clear
9:55 PM 35.6 °F - 32.0 °F 87% 30.08 in 7.0 mi Calm Calm - N/A   Clear
10:15 PM 37.4 °F 32.8 °F 32.0 °F 81% 30.08 in 10.0 mi WSW 5.8 mph - N/A   Clear
10:35 PM 41.0 °F 36.4 °F 32.0 °F 70% 30.08 in 10.0 mi WSW 6.9 mph - N/A   Clear
10:55 PM 41.0 °F 37.1 °F 32.0 °F 70% 30.08 in 10.0 mi WSW 5.8 mph - N/A   Clear
11:15 PM 41.0 °F 37.1 °F 32.0 °F 70% 30.08 in 10.0 mi WSW 5.8 mph - N/A   Clear
11:35 PM 41.0 °F 36.4 °F 32.0 °F 70% 30.08 in 10.0 mi West 6.9 mph - N/A   Clear
11:55 PM 41.0 °F 36.4 °F 32.0 °F 70% 30.08 in 10.0 mi West 6.9 mph - N/A   Clear